Flag Weather past 2 weeks in Winston-Salem, North Carolina, U.S.A.

Now
31 °F

Clear.


Feels Like: 25 °F
Forecast: 30 / 42 °F
Wind: 6 mph from Northwest

Location: Smith Reynolds Airport

Current Time: Nov 28, 2014 at 4:43:19 AM

Latest Report: Nov 28, 2014 at 3:54 AM


Visibility: 10 mi

Pressure: 30.31 "Hg

Humidity: 57%

Dew point: 17 °F

Location of Winston-SalemLocation

Historic Weather in Winston-Salem — Graph

°F

Winston-Salem temperature yesterday

Maximum temperature yesterday: 47 °F (at 2:54 PM)
Minimum temperature yesterday: 34 °F (at 11:54 PM)
Average temperature yesterday: 40 °F

Past Weeks' High & Low Weather Summary

 TemperatureHumidityPressure
High72 °F (Nov 24, 3:54 PM)97% (Nov 17, 8:04 AM)30.58 "Hg (Nov 17, 8:04 AM)
Low17 °F (Nov 19, 6:54 AM)15% (Nov 21, 2:54 PM)29.63 "Hg (Nov 17, 12:54 PM)
Average42 °F56%30.14 "Hg
* Reported Nov 13 2:54 AM — Nov 28 2:54 AM, Winston-Salem, Weather by CustomWeather, © 2014

Note: Actual official high and low records may vary slightly from our data, if they occured in-between our weather recording intervals... More about our weather records

Advertising

Winston-Salem weather history for previous 24 hours

 ConditionsComfort  
Time TempWeatherWind HumidityBarometerVisibility
2:54 AM
Nov 28
32 °FClear.6 mph52%30.31 "Hg10 mi
1:54 AM32 °FPassing clouds.5 mph54%30.30 "Hg10 mi
12:54 AM33 °FPassing clouds.6 mph49%30.29 "Hg10 mi
11:54 PM
Nov 27
34 °FPassing clouds.8 mph48%30.30 "Hg10 mi
10:54 PM35 °FOvercast.13 mph50%30.29 "Hg10 mi
9:54 PM37 °FPassing clouds.14 mph50%30.27 "Hg10 mi
8:54 PM38 °FOvercast.12 mph53%30.27 "Hg10 mi
7:54 PM39 °FMostly cloudy.6 mph57%30.25 "Hg10 mi
6:54 PM40 °FOvercast.7 mph51%30.22 "Hg10 mi
5:54 PM39 °FClear.13 mph55%30.21 "Hg10 mi
4:54 PM41 °FScattered clouds.16 mph49%30.18 "Hg10 mi
3:54 PM44 °FScattered clouds.14 mph47%30.14 "Hg10 mi
2:54 PM47 °FPartly sunny.16 mph46%30.10 "Hg10 mi
1:54 PM45 °FOvercast.13 mph58%30.09 "Hg10 mi
12:54 PM45 °FMore clouds than sun.6 mph63%30.09 "Hg10 mi
12:01 PM44 °FMore clouds than sun.10 mph73%30.08 "Hg10 mi
11:01 AM42 °FCloudy.6 mph79%30.08 "Hg10 mi
10:54 AM42 °FMostly cloudy.8 mph79%30.08 "Hg10 mi
10:01 AM38 °FLight rain. Fog.8 mph90%30.07 "Hg5 mi
8:54 AM39 °FLight rain. Mostly cloudy.13 mph86%30.05 "Hg8 mi
7:54 AM40 °FLight rain. Mostly cloudy.7 mph89%30.02 "Hg10 mi
6:54 AM40 °FLight rain. Fog.3 mph93%29.99 "Hg6 mi
5:54 AM40 °FFog.3 mph93%29.97 "Hg5 mi
4:54 AM40 °FLight rain. Fog.6 mph93%29.97 "Hg6 mi
Weather by CustomWeather, © 2014

See weather overviewHow to use our weather pages